Time,TemperatureF,DewpointF,PressureIn,WindDirection,WindDirectionDegrees,WindSpeedMPH,WindSpeedGustMPH,Humidity,HourlyPrecipIn,Conditions,Clouds,dailyrainin,SolarRadiationWatts/m^2,SoftwareType,DateUTC
2013-01-19 00:00:00,40.0,27.6,30.13,South,177,0.0,1.0,61,0.00,,CLR,0.00,0.00,VWS V14.01,2013-01-19 06:00:00,
2013-01-19 00:05:00,39.9,27.6,30.12,South,178,0.0,2.0,61,0.00,,CLR,0.00,0.00,VWS V14.01,2013-01-19 06:05:00,
2013-01-19 00:10:00,39.8,27.5,30.12,South,180,0.0,2.0,61,0.00,,CLR,0.00,0.00,VWS V14.01,2013-01-19 06:10:00,
2013-01-19 00:15:00,39.8,27.5,30.12,SSE,148,0.0,2.0,61,0.00,,CLR,0.00,0.00,VWS V14.01,2013-01-19 06:15:00,
2013-01-19 00:20:00,39.7,27.4,30.12,SSE,155,0.0,4.0,61,0.00,,CLR,0.00,0.00,VWS V14.01,2013-01-19 06:20:00,
2013-01-19 00:25:00,39.7,27.4,30.12,SSW,196,0.0,3.0,61,0.00,,CLR,0.00,0.00,VWS V14.01,2013-01-19 06:25:00,
2013-01-19 00:30:00,39.8,27.1,30.12,SSW,199,0.0,2.0,60,0.00,,CLR,0.00,0.00,VWS V14.01,2013-01-19 06:30:00,
2013-01-19 00:35:00,39.8,27.1,30.12,SSE,152,0.0,3.0,60,0.00,,CLR,0.00,0.00,VWS V14.01,2013-01-19 06:35:00,
2013-01-19 00:40:00,39.7,27.0,30.12,SW,228,2.0,2.0,60,0.00,,CLR,0.00,0.00,VWS V14.01,2013-01-19 06:40:00,
2013-01-19 00:45:00,39.7,27.0,30.12,SSW,202,0.0,3.0,60,0.00,,CLR,0.00,0.00,VWS V14.01,2013-01-19 06:45:00,
2013-01-19 00:50:00,39.6,27.3,30.12,South,180,1.0,4.0,61,0.00,,CLR,0.00,0.00,VWS V14.01,2013-01-19 06:50:00,
2013-01-19 00:56:00,39.5,26.8,30.12,SW,221,0.0,5.0,60,0.00,,CLR,0.00,0.00,VWS V14.01,2013-01-19 06:56:00,
2013-01-19 01:01:00,39.5,26.8,30.12,SSE,165,0.0,0.0,60,0.00,,CLR,0.00,0.00,VWS V14.01,2013-01-19 07:01:00,
2013-01-19 01:06:00,39.4,27.1,30.12,SSW,197,0.0,0.0,61,0.00,,CLR,0.00,0.00,VWS V14.01,2013-01-19 07:06:00,
2013-01-19 01:11:00,39.4,27.1,30.12,SW,236,0.0,0.0,61,0.00,,CLR,0.00,0.00,VWS V14.01,2013-01-19 07:11:00,
2013-01-19 01:16:00,39.4,26.7,30.12,ESE,110,1.0,1.0,60,0.00,,CLR,0.00,0.00,VWS V14.01,2013-01-19 07:16:00,
2013-01-19 01:21:00,39.5,26.8,30.12,SW,226,2.0,3.0,60,0.00,,CLR,0.00,0.00,VWS V14.01,2013-01-19 07:21:00,
2013-01-19 01:26:00,39.7,27.0,30.12,South,169,0.0,1.0,60,0.00,,CLR,0.00,0.00,VWS V14.01,2013-01-19 07:26:00,
2013-01-19 01:31:00,39.8,27.1,30.12,SSE,161,0.0,2.0,60,0.00,,CLR,0.00,0.00,VWS V14.01,2013-01-19 07:31:00,
2013-01-19 01:36:00,39.9,27.2,30.12,South,191,5.0,6.0,60,0.00,,CLR,0.00,0.00,VWS V14.01,2013-01-19 07:36:00,
2013-01-19 01:41:00,39.8,27.1,30.12,WSW,244,1.0,4.0,60,0.00,,CLR,0.00,0.00,VWS V14.01,2013-01-19 07:41:00,
2013-01-19 01:46:00,39.9,27.2,30.11,SW,227,5.0,9.0,60,0.00,,CLR,0.00,0.00,VWS V14.01,2013-01-19 07:46:00,
2013-01-19 01:52:00,40.1,26.9,30.11,WSW,246,0.0,3.0,59,0.00,,CLR,0.00,0.00,VWS V14.01,2013-01-19 07:52:00,
2013-01-19 01:57:00,40.2,27.0,30.11,SW,219,0.0,2.0,59,0.00,,CLR,0.00,0.00,VWS V14.01,2013-01-19 07:57:00,
2013-01-19 02:02:00,40.3,27.1,30.11,SSE,150,4.0,4.0,59,0.00,,CLR,0.00,0.00,VWS V14.01,2013-01-19 08:02:00,
2013-01-19 02:07:00,40.4,27.2,30.11,SSW,209,0.0,1.0,59,0.00,,CLR,0.00,0.00,VWS V14.01,2013-01-19 08:07:00,
2013-01-19 02:12:00,40.4,27.2,30.11,SW,227,1.0,4.0,59,0.00,,CLR,0.00,0.00,VWS V14.01,2013-01-19 08:12:00,
2013-01-19 02:17:00,40.3,26.7,30.11,SSW,213,0.0,6.0,58,0.00,,CLR,0.00,0.00,VWS V14.01,2013-01-19 08:17:00,
2013-01-19 02:22:00,40.3,26.7,30.11,SW,225,6.0,12.0,58,0.00,,CLR,0.00,0.00,VWS V14.01,2013-01-19 08:22:00,
2013-01-19 02:27:00,40.4,26.8,30.11,SSW,200,0.0,5.0,58,0.00,,CLR,0.00,0.00,VWS V14.01,2013-01-19 08:27:00,
2013-01-19 02:32:00,40.4,27.2,30.10,SW,215,0.0,5.0,59,0.00,,CLR,0.00,0.00,VWS V14.01,2013-01-19 08:32:00,
2013-01-19 02:37:00,40.3,26.7,30.10,SSE,159,4.0,6.0,58,0.00,,CLR,0.00,0.00,VWS V14.01,2013-01-19 08:37:00,
2013-01-19 02:42:00,40.3,26.7,30.10,SSW,213,1.0,5.0,58,0.00,,CLR,0.00,0.00,VWS V14.01,2013-01-19 08:42:00,
2013-01-19 02:47:00,40.3,26.7,30.10,WSW,240,4.0,9.0,58,0.00,,CLR,0.00,0.00,VWS V14.01,2013-01-19 08:47:00,
2013-01-19 02:52:00,40.4,26.8,30.10,WSW,237,1.0,5.0,58,0.00,,CLR,0.00,0.00,VWS V14.01,2013-01-19 08:52:00,
2013-01-19 02:57:00,40.4,26.8,30.10,WNW,289,3.0,3.0,58,0.00,,CLR,0.00,0.00,VWS V14.01,2013-01-19 08:57:00,
2013-01-19 03:02:00,40.3,26.7,30.10,South,171,0.0,5.0,58,0.00,,CLR,0.00,0.00,VWS V14.01,2013-01-19 09:02:00,
2013-01-19 03:07:00,40.2,26.6,30.10,West,269,0.0,7.0,58,0.00,,CLR,0.00,0.00,VWS V14.01,2013-01-19 09:07:00,
2013-01-19 03:13:00,40.2,27.0,30.10,SW,232,0.0,5.0,59,0.00,,CLR,0.00,0.00,VWS V14.01,2013-01-19 09:13:00,
2013-01-19 03:18:00,40.1,26.9,30.09,SSW,211,2.0,5.0,59,0.00,,CLR,0.00,0.00,VWS V14.01,2013-01-19 09:18:00,
2013-01-19 03:23:00,39.9,26.8,30.09,SW,229,0.0,4.0,59,0.00,,CLR,0.00,0.00,VWS V14.01,2013-01-19 09:23:00,
2013-01-19 03:28:00,39.8,26.7,30.09,SSW,207,1.0,4.0,59,0.00,,CLR,0.00,0.00,VWS V14.01,2013-01-19 09:28:00,
2013-01-19 03:33:00,39.8,27.1,30.09,SW,234,1.0,6.0,60,0.00,,CLR,0.00,0.00,VWS V14.01,2013-01-19 09:33:00,
2013-01-19 03:38:00,39.7,27.0,30.09,SW,216,0.0,4.0,60,0.00,,CLR,0.00,0.00,VWS V14.01,2013-01-19 09:38:00,
2013-01-19 03:43:00,39.7,27.0,30.09,WSW,242,0.0,4.0,60,0.00,,CLR,0.00,0.00,VWS V14.01,2013-01-19 09:43:00,
2013-01-19 03:48:00,39.7,27.0,30.08,SW,234,0.0,5.0,60,0.00,,CLR,0.00,0.00,VWS V14.01,2013-01-19 09:48:00,
2013-01-19 03:53:00,39.7,27.0,30.08,South,188,0.0,5.0,60,0.00,,CLR,0.00,0.00,VWS V14.01,2013-01-19 09:53:00,
2013-01-19 03:58:00,39.7,27.0,30.08,SW,215,0.0,6.0,60,0.00,,CLR,0.00,0.00,VWS V14.01,2013-01-19 09:58:00,
2013-01-19 04:04:00,39.6,26.9,30.08,SW,234,2.0,4.0,60,0.00,,CLR,0.00,0.00,VWS V14.01,2013-01-19 10:04:00,
2013-01-19 04:09:00,39.5,27.2,30.08,WSW,240,6.0,7.0,61,0.00,,CLR,0.00,0.00,VWS V14.01,2013-01-19 10:09:00,
2013-01-19 04:14:00,39.6,26.9,30.08,SW,219,0.0,6.0,60,0.00,,CLR,0.00,0.00,VWS V14.01,2013-01-19 10:14:00,
2013-01-19 04:19:00,39.5,27.2,30.08,SW,217,7.0,7.0,61,0.00,,CLR,0.00,0.00,VWS V14.01,2013-01-19 10:19:00,
2013-01-19 04:24:00,39.5,27.2,30.08,SW,232,5.0,7.0,61,0.00,,CLR,0.00,0.00,VWS V14.01,2013-01-19 10:24:00,
2013-01-19 04:29:00,39.6,27.3,30.08,SW,226,3.0,7.0,61,0.00,,CLR,0.00,0.00,VWS V14.01,2013-01-19 10:29:00,
2013-01-19 04:35:00,39.6,27.3,30.08,SW,235,0.0,6.0,61,0.00,,CLR,0.00,0.00,VWS V14.01,2013-01-19 10:35:00,
2013-01-19 04:40:00,39.7,27.4,30.08,WSW,248,3.0,7.0,61,0.00,,CLR,0.00,0.00,VWS V14.01,2013-01-19 10:40:00,
2013-01-19 04:45:00,39.7,27.4,30.08,SW,231,1.0,7.0,61,0.00,,CLR,0.00,0.00,VWS V14.01,2013-01-19 10:45:00,
2013-01-19 04:50:00,39.7,27.8,30.08,West,268,2.0,5.0,62,0.00,,CLR,0.00,0.00,VWS V14.01,2013-01-19 10:50:00,
2013-01-19 04:55:00,39.8,27.5,30.08,SW,234,0.0,7.0,61,0.00,,CLR,0.00,0.00,VWS V14.01,2013-01-19 10:55:00,
2013-01-19 05:00:00,39.7,27.8,30.07,SW,233,1.0,5.0,62,0.00,,CLR,0.00,0.00,VWS V14.01,2013-01-19 11:00:00,
2013-01-19 05:05:00,39.7,27.8,30.07,South,190,0.0,11.0,62,0.00,,CLR,0.00,0.00,VWS V14.01,2013-01-19 11:05:00,
2013-01-19 05:10:00,39.7,27.8,30.07,SSW,205,4.0,11.0,62,0.00,,CLR,0.00,0.00,VWS V14.01,2013-01-19 11:10:00,
2013-01-19 06:48:00,38.9,28.9,30.06,SW,217,2.0,4.0,67,0.00,,CLR,0.00,0.00,VWS V14.01,2013-01-19 12:48:00,
2013-01-19 06:49:00,38.9,28.9,30.06,SSW,207,0.0,4.0,67,0.00,,CLR,0.00,0.00,VWS V14.01,2013-01-19 12:49:00,
2013-01-19 06:51:00,38.9,28.9,30.06,SSW,207,0.0,4.0,67,0.00,,CLR,0.00,0.00,VWS V14.01,2013-01-19 12:51:00,
2013-01-19 06:52:00,38.9,28.9,30.06,SSW,207,1.0,2.0,67,0.00,,CLR,0.00,0.00,VWS V14.01,2013-01-19 12:52:00,
2013-01-19 06:57:00,38.8,28.8,30.06,West,270,0.0,1.0,67,0.00,,CLR,0.00,0.00,VWS V14.01,2013-01-19 12:57:00,
2013-01-19 07:03:00,38.8,28.8,30.07,SW,236,0.0,2.0,67,0.00,,CLR,0.00,0.00,VWS V14.01,2013-01-19 13:03:00,
2013-01-19 07:08:00,38.7,29.1,30.07,WSW,254,1.0,2.0,68,0.00,,CLR,0.00,0.00,VWS V14.01,2013-01-19 13:08:00,
2013-01-19 07:13:00,38.8,29.2,30.07,SW,230,0.0,1.0,68,0.00,,CLR,0.00,0.00,VWS V14.01,2013-01-19 13:13:00,
2013-01-19 07:18:00,38.8,29.2,30.06,SSW,213,0.0,2.0,68,0.00,,CLR,0.00,0.00,VWS V14.01,2013-01-19 13:18:00,
2013-01-19 07:23:00,38.8,29.2,30.06,WSW,250,0.0,1.0,68,0.00,,CLR,0.00,0.00,VWS V14.01,2013-01-19 13:23:00,
2013-01-19 07:28:00,38.7,29.4,30.06,SW,233,0.0,2.0,69,0.00,,CLR,0.00,5.00,VWS V14.01,2013-01-19 13:28:00,
2013-01-19 07:33:00,38.7,29.4,30.06,SSW,206,0.0,2.0,69,0.00,,CLR,0.00,7.00,VWS V14.01,2013-01-19 13:33:00,
2013-01-19 07:38:00,38.8,29.5,30.06,SW,218,0.0,1.0,69,0.00,,CLR,0.00,11.00,VWS V14.01,2013-01-19 13:38:00,
2013-01-19 07:43:00,38.8,29.5,30.06,SSW,213,0.0,1.0,69,0.00,,CLR,0.00,12.00,VWS V14.01,2013-01-19 13:43:00,
2013-01-19 07:48:00,38.8,29.9,30.06,South,181,0.0,1.0,70,0.00,,CLR,0.00,14.00,VWS V14.01,2013-01-19 13:48:00,
2013-01-19 07:53:00,38.8,29.9,30.06,SSW,192,1.0,3.0,70,0.00,,CLR,0.00,16.00,VWS V14.01,2013-01-19 13:53:00,
2013-01-19 07:58:00,39.0,30.1,30.06,West,270,2.0,3.0,70,0.00,,CLR,0.00,18.00,VWS V14.01,2013-01-19 13:58:00,
2013-01-19 08:03:00,39.2,30.2,30.06,WSW,242,2.0,4.0,70,0.00,,CLR,0.00,21.00,VWS V14.01,2013-01-19 14:03:00,
2013-01-19 08:09:00,39.5,30.5,30.06,WSW,240,1.0,3.0,70,0.00,,CLR,0.00,25.00,VWS V14.01,2013-01-19 14:09:00,
2013-01-19 08:14:00,39.8,30.8,30.06,SSW,198,0.0,2.0,70,0.00,,CLR,0.00,28.00,VWS V14.01,2013-01-19 14:14:00,
2013-01-19 08:19:00,40.0,30.7,30.06,West,262,0.0,0.0,69,0.00,,CLR,0.00,32.00,VWS V14.01,2013-01-19 14:19:00,
2013-01-19 08:24:00,40.3,31.0,30.06,NE,38,0.0,7.0,69,0.00,,CLR,0.00,33.00,VWS V14.01,2013-01-19 14:24:00,
2013-01-19 08:29:00,40.6,31.2,30.06,SW,234,0.0,3.0,69,0.00,,CLR,0.00,39.00,VWS V14.01,2013-01-19 14:29:00,
2013-01-19 08:34:00,40.9,31.5,30.06,South,187,0.0,4.0,69,0.00,,CLR,0.00,84.00,VWS V14.01,2013-01-19 14:34:00,
2013-01-19 08:39:00,41.2,31.5,30.06,SW,225,2.0,3.0,68,0.00,,CLR,0.00,70.00,VWS V14.01,2013-01-19 14:39:00,
2013-01-19 08:44:00,41.7,31.9,30.06,WSW,244,0.0,3.0,68,0.00,,CLR,0.00,104.00,VWS V14.01,2013-01-19 14:44:00,
2013-01-19 08:49:00,42.2,32.4,30.06,WSW,255,0.0,6.0,68,0.00,,CLR,0.00,188.00,VWS V14.01,2013-01-19 14:49:00,
2013-01-19 08:55:00,42.8,32.6,30.06,West,271,2.0,6.0,67,0.00,,CLR,0.00,223.00,VWS V14.01,2013-01-19 14:55:00,
2013-01-19 09:00:00,43.6,32.6,30.07,South,186,0.0,7.0,65,0.00,,CLR,0.00,234.00,VWS V14.01,2013-01-19 15:00:00,
2013-01-19 09:05:00,44.6,33.2,30.07,SW,222,0.0,5.0,64,0.00,,CLR,0.00,251.00,VWS V14.01,2013-01-19 15:05:00,
2013-01-19 09:10:00,45.4,33.6,30.07,West,272,6.0,7.0,63,0.00,,CLR,0.00,265.00,VWS V14.01,2013-01-19 15:10:00,
2013-01-19 09:15:00,46.3,34.0,30.07,SSW,192,1.0,11.0,62,0.00,,CLR,0.00,279.00,VWS V14.01,2013-01-19 15:15:00,
2013-01-19 09:20:00,47.0,34.3,30.07,SW,222,2.0,10.0,61,0.00,,CLR,0.00,295.00,VWS V14.01,2013-01-19 15:20:00,
2013-01-19 09:25:00,47.7,34.1,30.07,SW,225,9.0,14.0,59,0.00,,CLR,0.00,308.00,VWS V14.01,2013-01-19 15:25:00,
2013-01-19 09:30:00,48.3,34.2,30.07,SW,236,5.0,11.0,58,0.00,,CLR,0.00,323.00,VWS V14.01,2013-01-19 15:30:00,
2013-01-19 09:35:00,48.7,34.6,30.07,SW,225,3.0,11.0,58,0.00,,CLR,0.00,334.00,VWS V14.01,2013-01-19 15:35:00,
2013-01-19 09:40:00,49.2,35.1,30.07,SW,223,2.0,9.0,58,0.00,,CLR,0.00,348.00,VWS V14.01,2013-01-19 15:40:00,
2013-01-19 09:45:00,49.8,34.8,30.07,SSW,210,3.0,11.0,56,0.00,,CLR,0.00,362.00,VWS V14.01,2013-01-19 15:45:00,
2013-01-19 09:50:00,50.3,35.2,30.07,WSW,240,5.0,8.0,56,0.00,,CLR,0.00,374.00,VWS V14.01,2013-01-19 15:50:00,
2013-01-19 09:55:00,50.8,35.2,30.07,WSW,246,7.0,10.0,55,0.00,,CLR,0.00,387.00,VWS V14.01,2013-01-19 15:55:00,
2013-01-19 10:00:00,51.4,35.3,30.07,SW,224,0.0,11.0,54,0.00,,CLR,0.00,397.00,VWS V14.01,2013-01-19 16:00:00,
2013-01-19 10:06:00,51.9,36.3,30.07,SE,134,1.0,7.0,55,0.00,,CLR,0.00,408.00,VWS V14.01,2013-01-19 16:06:00,
2013-01-19 10:11:00,52.4,35.8,30.07,SW,232,0.0,8.0,53,0.00,,CLR,0.00,418.00,VWS V14.01,2013-01-19 16:11:00,
2013-01-19 10:16:00,53.1,36.0,30.06,SSE,156,3.0,9.0,52,0.00,,CLR,0.00,429.00,VWS V14.01,2013-01-19 16:16:00,
2013-01-19 10:21:00,53.7,37.0,30.06,SSE,149,2.0,8.0,53,0.00,,CLR,0.00,441.00,VWS V14.01,2013-01-19 16:21:00,
2013-01-19 10:26:00,54.2,37.0,30.06,WSW,249,2.0,6.0,52,0.00,,CLR,0.00,452.00,VWS V14.01,2013-01-19 16:26:00,
2013-01-19 10:31:00,54.8,37.0,30.06,West,281,6.0,7.0,51,0.00,,CLR,0.00,461.00,VWS V14.01,2013-01-19 16:31:00,
2013-01-19 10:36:00,55.5,36.7,30.06,WSW,244,4.0,7.0,49,0.00,,CLR,0.00,469.00,VWS V14.01,2013-01-19 16:36:00,
2013-01-19 10:41:00,55.8,36.4,30.06,WSW,251,3.0,5.0,48,0.00,,CLR,0.00,478.00,VWS V14.01,2013-01-19 16:41:00,
2013-01-19 10:46:00,56.0,36.6,30.06,SW,236,10.0,10.0,48,0.00,,CLR,0.00,487.00,VWS V14.01,2013-01-19 16:46:00,
2013-01-19 10:51:00,56.3,36.3,30.06,West,277,9.0,10.0,47,0.00,,CLR,0.00,496.00,VWS V14.01,2013-01-19 16:51:00,
2013-01-19 10:56:00,56.9,37.4,30.06,SW,227,6.0,8.0,48,0.00,,CLR,0.00,503.00,VWS V14.01,2013-01-19 16:56:00,
2013-01-19 11:03:00,57.4,36.2,30.05,SW,227,3.0,16.0,45,0.00,,CLR,0.00,513.00,VWS V14.01,2013-01-19 17:03:00,
2013-01-19 11:08:00,57.5,36.9,30.05,SSE,159,10.0,16.0,46,0.00,,CLR,0.00,520.00,VWS V14.01,2013-01-19 17:08:00,
2013-01-19 11:15:00,57.9,37.3,30.05,SW,230,5.0,11.0,46,0.00,,CLR,0.00,527.00,VWS V14.01,2013-01-19 17:15:00,
2013-01-19 11:21:00,58.1,36.9,30.05,WSW,248,12.0,12.0,45,0.00,,CLR,0.00,534.00,VWS V14.01,2013-01-19 17:21:00,
2013-01-19 11:26:00,58.3,37.1,30.05,NW,306,3.0,8.0,45,0.00,,CLR,0.00,541.00,VWS V14.01,2013-01-19 17:26:00,
2013-01-19 11:32:00,58.6,37.3,30.04,WSW,248,4.0,8.0,45,0.00,,CLR,0.00,547.00,VWS V14.01,2013-01-19 17:32:00,
2013-01-19 11:38:00,59.0,36.6,30.04,West,263,10.0,11.0,43,0.00,,CLR,0.00,550.00,VWS V14.01,2013-01-19 17:38:00,
2013-01-19 11:44:00,59.0,37.1,30.04,WNW,286,4.0,12.0,44,0.00,,CLR,0.00,555.00,VWS V14.01,2013-01-19 17:44:00,
2013-01-19 11:49:00,59.0,37.1,30.04,WSW,246,4.0,13.0,44,0.00,,CLR,0.00,559.00,VWS V14.01,2013-01-19 17:49:00,
2013-01-19 11:54:00,59.0,37.1,30.04,WSW,252,3.0,9.0,44,0.00,,CLR,0.00,561.00,VWS V14.01,2013-01-19 17:54:00,
2013-01-19 12:00:00,59.5,37.6,30.04,West,267,9.0,11.0,44,0.00,,CLR,0.00,563.00,VWS V14.01,2013-01-19 18:00:00,
2013-01-19 12:06:00,59.9,37.4,30.03,SW,229,4.0,13.0,43,0.00,,CLR,0.00,566.00,VWS V14.01,2013-01-19 18:06:00,
2013-01-19 12:12:00,60.4,38.4,30.03,SW,227,3.0,8.0,44,0.00,,CLR,0.00,570.00,VWS V14.01,2013-01-19 18:12:00,
2013-01-19 12:18:00,60.9,38.9,30.01,WSW,250,3.0,6.0,44,0.00,,CLR,0.00,571.00,VWS V14.01,2013-01-19 18:18:00,
2013-01-19 12:23:00,60.9,38.3,30.01,West,263,5.0,9.0,43,0.00,,CLR,0.00,573.00,VWS V14.01,2013-01-19 18:23:00,
2013-01-19 12:29:00,61.1,37.2,30.01,SW,235,5.0,14.0,41,0.00,,CLR,0.00,575.00,VWS V14.01,2013-01-19 18:29:00,
2013-01-19 12:35:00,61.0,37.2,30.01,West,281,2.0,12.0,41,0.00,,CLR,0.00,570.00,VWS V14.01,2013-01-19 18:35:00,
2013-01-19 12:40:00,61.3,37.4,30.01,West,260,16.0,16.0,41,0.00,,CLR,0.00,571.00,VWS V14.01,2013-01-19 18:40:00,
2013-01-19 12:45:00,61.3,36.8,30.00,West,277,8.0,14.0,40,0.00,,CLR,0.00,570.00,VWS V14.01,2013-01-19 18:45:00,
2013-01-19 12:50:00,61.6,38.3,30.00,NNW,337,0.0,12.0,42,0.00,,CLR,0.00,568.00,VWS V14.01,2013-01-19 18:50:00,
2013-01-19 12:56:00,62.2,39.5,30.00,South,186,0.0,6.0,43,0.00,,CLR,0.00,568.00,VWS V14.01,2013-01-19 18:56:00,
2013-01-19 13:03:00,62.8,38.1,29.99,SSW,198,1.0,11.0,40,0.00,,CLR,0.00,564.00,VWS V14.01,2013-01-19 19:03:00,
2013-01-19 13:10:00,62.9,38.2,29.99,SSE,147,4.0,15.0,40,0.00,,CLR,0.00,557.00,VWS V14.01,2013-01-19 19:10:00,
2013-01-19 13:17:00,62.7,36.8,29.99,South,178,2.0,16.0,38,0.00,,CLR,0.00,552.00,VWS V14.01,2013-01-19 19:17:00,
2013-01-19 13:22:00,62.6,36.7,29.99,WNW,300,6.0,15.0,38,0.00,,CLR,0.00,545.00,VWS V14.01,2013-01-19 19:22:00,
2013-01-19 13:28:00,62.5,37.2,29.99,WSW,244,3.0,12.0,39,0.00,,CLR,0.00,540.00,VWS V14.01,2013-01-19 19:28:00,
2013-01-19 13:34:00,62.8,37.5,29.99,WNW,295,9.0,11.0,39,0.00,,CLR,0.00,534.00,VWS V14.01,2013-01-19 19:34:00,
2013-01-19 13:40:00,63.1,37.8,29.99,WSW,237,7.0,9.0,39,0.00,,CLR,0.00,527.00,VWS V14.01,2013-01-19 19:40:00,
2013-01-19 13:45:00,63.2,38.5,29.98,SW,232,3.0,12.0,40,0.00,,CLR,0.00,522.00,VWS V14.01,2013-01-19 19:45:00,
2013-01-19 13:51:00,63.6,38.9,29.98,SW,234,2.0,4.0,40,0.00,,CLR,0.00,517.00,VWS V14.01,2013-01-19 19:51:00,
2013-01-19 13:57:00,63.9,37.8,29.98,WSW,237,2.0,7.0,38,0.00,,CLR,0.00,508.00,VWS V14.01,2013-01-19 19:57:00,
2013-01-19 14:03:00,64.0,37.9,29.98,WNW,286,4.0,8.0,38,0.00,,CLR,0.00,499.00,VWS V14.01,2013-01-19 20:03:00,
2013-01-19 14:08:00,63.6,36.9,29.98,WSW,254,3.0,14.0,37,0.00,,CLR,0.00,489.00,VWS V14.01,2013-01-19 20:08:00,
2013-01-19 14:14:00,63.5,38.8,29.98,WNW,288,9.0,12.0,40,0.00,,CLR,0.00,482.00,VWS V14.01,2013-01-19 20:14:00,
2013-01-19 14:19:00,63.5,37.5,29.98,West,261,3.0,13.0,38,0.00,,CLR,0.00,471.00,VWS V14.01,2013-01-19 20:19:00,
2013-01-19 14:25:00,63.6,37.5,29.98,SW,225,6.0,11.0,38,0.00,,CLR,0.00,461.00,VWS V14.01,2013-01-19 20:25:00,
2013-01-19 14:30:00,63.9,38.5,29.97,WSW,254,5.0,8.0,39,0.00,,CLR,0.00,450.00,VWS V14.01,2013-01-19 20:30:00,
2013-01-19 14:36:00,64.1,38.0,29.97,WNW,286,5.0,13.0,38,0.00,,CLR,0.00,438.00,VWS V14.01,2013-01-19 20:36:00,
2013-01-19 14:41:00,64.0,37.2,29.97,WSW,250,2.0,14.0,37,0.00,,CLR,0.00,427.00,VWS V14.01,2013-01-19 20:41:00,
2013-01-19 14:46:00,63.8,38.4,29.97,SW,232,10.0,14.0,39,0.00,,CLR,0.00,420.00,VWS V14.01,2013-01-19 20:46:00,
2013-01-19 14:51:00,63.8,37.7,29.97,SW,234,3.0,15.0,38,0.00,,CLR,0.00,410.00,VWS V14.01,2013-01-19 20:51:00,
2013-01-19 14:56:00,63.8,37.7,29.97,WSW,252,4.0,13.0,38,0.00,,CLR,0.00,399.00,VWS V14.01,2013-01-19 20:56:00,
2013-01-19 15:01:00,63.9,37.8,29.97,WSW,254,5.0,11.0,38,0.00,,CLR,0.00,387.00,VWS V14.01,2013-01-19 21:01:00,
2013-01-19 15:06:00,64.0,37.9,29.97,West,264,3.0,6.0,38,0.00,,CLR,0.00,373.00,VWS V14.01,2013-01-19 21:06:00,
2013-01-19 15:13:00,64.3,37.5,29.97,WSW,249,8.0,15.0,37,0.00,,CLR,0.00,355.00,VWS V14.01,2013-01-19 21:13:00,
2013-01-19 15:19:00,64.2,38.1,29.96,WSW,240,3.0,10.0,38,0.00,,CLR,0.00,345.00,VWS V14.01,2013-01-19 21:19:00,
2013-01-19 15:25:00,64.4,38.3,29.96,WSW,237,1.0,5.0,38,0.00,,CLR,0.00,327.00,VWS V14.01,2013-01-19 21:25:00,
2013-01-19 15:31:00,64.6,38.4,29.96,SSW,202,1.0,12.0,38,0.00,,CLR,0.00,313.00,VWS V14.01,2013-01-19 21:31:00,
2013-01-19 15:36:00,64.6,37.8,29.96,SSW,198,6.0,16.0,37,0.00,,CLR,0.00,297.00,VWS V14.01,2013-01-19 21:36:00,
2013-01-19 15:44:00,64.3,38.2,29.96,SE,131,1.0,8.0,38,0.00,,CLR,0.00,272.00,VWS V14.01,2013-01-19 21:44:00,
2013-01-19 15:50:00,64.2,38.1,29.96,WSW,257,4.0,9.0,38,0.00,,CLR,0.00,260.00,VWS V14.01,2013-01-19 21:50:00,
2013-01-19 15:56:00,64.1,38.0,29.96,SW,217,0.0,9.0,38,0.00,,CLR,0.00,248.00,VWS V14.01,2013-01-19 21:56:00,
2013-01-19 16:01:00,64.1,38.0,29.96,West,262,0.0,2.0,38,0.00,,CLR,0.00,234.00,VWS V14.01,2013-01-19 22:01:00,
2013-01-19 16:06:00,64.1,38.0,29.96,WSW,254,1.0,1.0,38,0.00,,CLR,0.00,218.00,VWS V14.01,2013-01-19 22:06:00,
2013-01-19 16:12:00,64.0,37.2,29.96,WSW,242,3.0,11.0,37,0.00,,CLR,0.00,200.00,VWS V14.01,2013-01-19 22:12:00,
2013-01-19 16:18:00,63.9,37.8,29.96,WSW,246,1.0,6.0,38,0.00,,CLR,0.00,181.00,VWS V14.01,2013-01-19 22:18:00,
2013-01-19 16:23:00,63.7,39.0,29.96,SW,226,0.0,5.0,40,0.00,,CLR,0.00,165.00,VWS V14.01,2013-01-19 22:23:00,
2013-01-19 16:29:00,63.6,38.9,29.96,SSW,198,0.0,7.0,40,0.00,,CLR,0.00,151.00,VWS V14.01,2013-01-19 22:29:00,
2013-01-19 16:34:00,63.3,38.0,29.97,West,268,2.0,8.0,39,0.00,,CLR,0.00,134.00,VWS V14.01,2013-01-19 22:34:00,
2013-01-19 16:40:00,63.1,37.8,29.97,WSW,250,0.0,7.0,39,0.00,,CLR,0.00,114.00,VWS V14.01,2013-01-19 22:40:00,
2013-01-19 16:45:00,62.9,38.2,29.98,WSW,257,0.0,5.0,40,0.00,,CLR,0.00,97.00,VWS V14.01,2013-01-19 22:45:00,
2013-01-19 16:50:00,62.6,38.0,29.98,WSW,249,4.0,9.0,40,0.00,,CLR,0.00,79.00,VWS V14.01,2013-01-19 22:50:00,
2013-01-19 16:55:00,62.2,37.6,29.98,West,275,2.0,5.0,40,0.00,,CLR,0.00,63.00,VWS V14.01,2013-01-19 22:55:00,
2013-01-19 17:00:00,61.8,37.2,29.98,West,261,2.0,7.0,40,0.00,,CLR,0.00,40.00,VWS V14.01,2013-01-19 23:00:00,
2013-01-19 17:06:00,61.2,37.3,29.98,West,277,1.0,2.0,41,0.00,,CLR,0.00,23.00,VWS V14.01,2013-01-19 23:06:00,
2013-01-19 17:12:00,60.7,37.5,29.98,NW,311,1.0,5.0,42,0.00,,CLR,0.00,16.00,VWS V14.01,2013-01-19 23:12:00,
2013-01-19 17:17:00,60.3,37.1,30.00,West,276,2.0,3.0,42,0.00,,CLR,0.00,9.00,VWS V14.01,2013-01-19 23:17:00,
2013-01-19 17:23:00,59.9,37.4,30.00,West,268,0.0,5.0,43,0.00,,CLR,0.00,5.00,VWS V14.01,2013-01-19 23:23:00,
2013-01-19 17:28:00,59.4,37.5,30.00,West,267,0.0,2.0,44,0.00,,CLR,0.00,0.00,VWS V14.01,2013-01-19 23:28:00,
2013-01-19 17:34:00,59.0,37.1,30.00,West,267,0.0,2.0,44,0.00,,CLR,0.00,0.00,VWS V14.01,2013-01-19 23:34:00,
2013-01-19 17:40:00,58.7,37.4,30.00,West,267,0.0,2.0,45,0.00,,CLR,0.00,0.00,VWS V14.01,2013-01-19 23:40:00,
2013-01-19 17:45:00,58.0,37.4,30.01,WNW,299,1.0,3.0,46,0.00,,CLR,0.00,0.00,VWS V14.01,2013-01-19 23:45:00,
2013-01-19 17:51:00,57.5,37.5,30.01,WNW,295,3.0,3.0,47,0.00,,CLR,0.00,0.00,VWS V14.01,2013-01-19 23:51:00,
2013-01-19 17:57:00,57.1,37.6,30.01,WSW,246,1.0,4.0,48,0.00,,CLR,0.00,0.00,VWS V14.01,2013-01-19 23:57:00,
2013-01-19 18:02:00,56.7,37.2,30.02,WSW,246,0.0,4.0,48,0.00,,CLR,0.00,0.00,VWS V14.01,2013-01-20 00:02:00,
2013-01-19 18:08:00,56.4,37.5,30.02,West,275,3.0,3.0,49,0.00,,CLR,0.00,0.00,VWS V14.01,2013-01-20 00:08:00,
2013-01-19 18:13:00,56.1,37.2,30.02,West,271,1.0,3.0,49,0.00,,CLR,0.00,0.00,VWS V14.01,2013-01-20 00:13:00,
2013-01-19 18:18:00,55.8,37.5,30.03,WNW,296,0.0,0.0,50,0.00,,CLR,0.00,0.00,VWS V14.01,2013-01-20 00:18:00,
2013-01-19 18:24:00,55.5,37.2,30.03,West,275,0.0,2.0,50,0.00,,CLR,0.00,0.00,VWS V14.01,2013-01-20 00:24:00,
2013-01-19 18:29:00,55.1,37.3,30.03,WNW,298,0.0,1.0,51,0.00,,CLR,0.00,0.00,VWS V14.01,2013-01-20 00:29:00,
2013-01-19 18:34:00,54.8,37.0,30.03,WNW,298,0.0,1.0,51,0.00,,CLR,0.00,0.00,VWS V14.01,2013-01-20 00:34:00,
2013-01-19 18:40:00,54.4,37.2,30.03,WNW,291,0.0,3.0,52,0.00,,CLR,0.00,0.00,VWS V14.01,2013-01-20 00:40:00,
2013-01-19 18:46:00,54.1,36.9,30.04,WNW,294,0.0,2.0,52,0.00,,CLR,0.00,0.00,VWS V14.01,2013-01-20 00:46:00,
2013-01-19 18:51:00,53.8,36.6,30.04,WNW,284,1.0,3.0,52,0.00,,CLR,0.00,0.00,VWS V14.01,2013-01-20 00:51:00,
2013-01-19 18:56:00,53.6,36.9,30.04,WNW,284,0.0,1.0,53,0.00,,CLR,0.00,0.00,VWS V14.01,2013-01-20 00:56:00,
2013-01-19 19:01:00,53.4,36.7,30.04,WNW,284,0.0,1.0,53,0.00,,CLR,0.00,0.00,VWS V14.01,2013-01-20 01:01:00,
2013-01-19 19:06:00,53.2,36.5,30.04,WNW,286,0.0,2.0,53,0.00,,CLR,0.00,0.00,VWS V14.01,2013-01-20 01:06:00,
2013-01-19 19:12:00,53.0,36.8,30.04,WNW,286,0.0,1.0,54,0.00,,CLR,0.00,0.00,VWS V14.01,2013-01-20 01:12:00,
2013-01-19 19:18:00,52.7,36.5,30.05,WNW,286,0.0,0.0,54,0.00,,CLR,0.00,0.00,VWS V14.01,2013-01-20 01:18:00,
2013-01-19 19:23:00,52.5,36.3,30.05,WNW,286,0.0,0.0,54,0.00,,CLR,0.00,0.00,VWS V14.01,2013-01-20 01:23:00,
2013-01-19 19:28:00,52.3,36.6,30.05,WNW,286,0.0,0.0,55,0.00,,CLR,0.00,0.00,VWS V14.01,2013-01-20 01:28:00,
2013-01-19 19:34:00,52.1,36.4,30.06,WNW,286,0.0,0.0,55,0.00,,CLR,0.00,0.00,VWS V14.01,2013-01-20 01:34:00,
2013-01-19 19:40:00,51.8,36.2,30.06,WNW,286,0.0,0.0,55,0.00,,CLR,0.00,0.00,VWS V14.01,2013-01-20 01:40:00,
2013-01-19 19:45:00,51.5,36.3,30.06,WNW,286,0.0,0.0,56,0.00,,CLR,0.00,0.00,VWS V14.01,2013-01-20 01:45:00,
2013-01-19 19:51:00,51.1,36.0,30.06,WNW,286,0.0,0.0,56,0.00,,CLR,0.00,0.00,VWS V14.01,2013-01-20 01:51:00,
2013-01-19 19:56:00,50.7,35.6,30.06,WNW,286,0.0,0.0,56,0.00,,CLR,0.00,0.00,VWS V14.01,2013-01-20 01:56:00,
2013-01-19 20:01:00,50.1,35.9,30.07,WNW,286,0.0,0.0,58,0.00,,CLR,0.00,0.00,VWS V14.01,2013-01-20 02:01:00,
2013-01-19 20:09:00,49.4,35.7,30.07,WNW,286,0.0,0.0,59,0.00,,CLR,0.00,0.00,VWS V14.01,2013-01-20 02:09:00,
2013-01-19 20:15:00,49.0,35.7,30.07,WNW,286,0.0,0.0,60,0.00,,CLR,0.00,0.00,VWS V14.01,2013-01-20 02:15:00,
2013-01-19 20:21:00,48.6,35.8,30.07,WNW,286,0.0,1.0,61,0.00,,CLR,0.00,0.00,VWS V14.01,2013-01-20 02:21:00,
2013-01-19 20:26:00,48.4,35.6,30.07,WNW,286,0.0,0.0,61,0.00,,CLR,0.00,0.00,VWS V14.01,2013-01-20 02:26:00,
2013-01-19 20:31:00,48.2,35.8,30.08,WNW,286,0.0,0.0,62,0.00,,CLR,0.00,0.00,VWS V14.01,2013-01-20 02:31:00,
2013-01-19 20:36:00,48.0,35.6,30.08,WNW,286,0.0,0.0,62,0.00,,CLR,0.00,0.00,VWS V14.01,2013-01-20 02:36:00,
2013-01-19 20:41:00,47.8,35.8,30.08,WNW,286,0.0,0.0,63,0.00,,CLR,0.00,0.00,VWS V14.01,2013-01-20 02:41:00,
2013-01-19 20:46:00,47.7,36.1,30.08,WNW,286,0.0,0.0,64,0.00,,CLR,0.00,0.00,VWS V14.01,2013-01-20 02:46:00,
2013-01-19 20:52:00,47.6,36.0,30.08,WNW,286,0.0,0.0,64,0.00,,CLR,0.00,0.00,VWS V14.01,2013-01-20 02:52:00,
2013-01-19 20:58:00,47.4,35.8,30.08,WNW,286,0.0,0.0,64,0.00,,CLR,0.00,0.00,VWS V14.01,2013-01-20 02:58:00,
2013-01-19 21:03:00,47.3,36.2,30.08,WNW,286,0.0,0.0,65,0.00,,CLR,0.00,0.00,VWS V14.01,2013-01-20 03:03:00,
2013-01-19 21:09:00,47.2,36.0,30.08,WNW,286,0.0,0.0,65,0.00,,CLR,0.00,0.00,VWS V14.01,2013-01-20 03:09:00,
2013-01-19 21:14:00,47.0,35.9,30.08,WNW,286,0.0,0.0,65,0.00,,CLR,0.00,0.00,VWS V14.01,2013-01-20 03:14:00,
2013-01-19 21:19:00,46.9,36.2,30.08,WNW,286,0.0,0.0,66,0.00,,CLR,0.00,0.00,VWS V14.01,2013-01-20 03:19:00,
2013-01-19 21:25:00,46.8,36.0,30.08,WNW,286,0.0,0.0,66,0.00,,CLR,0.00,0.00,VWS V14.01,2013-01-20 03:25:00,
2013-01-19 21:30:00,46.7,36.3,30.08,WNW,286,0.0,0.0,67,0.00,,CLR,0.00,0.00,VWS V14.01,2013-01-20 03:30:00,
2013-01-19 21:36:00,46.6,36.2,30.08,WNW,286,0.0,0.0,67,0.00,,CLR,0.00,0.00,VWS V14.01,2013-01-20 03:36:00,
2013-01-19 21:41:00,46.5,36.2,30.08,WNW,286,0.0,0.0,67,0.00,,CLR,0.00,0.00,VWS V14.01,2013-01-20 03:41:00,
2013-01-19 21:46:00,46.4,36.0,30.08,WNW,286,0.0,0.0,67,0.00,,CLR,0.00,0.00,VWS V14.01,2013-01-20 03:46:00,
2013-01-19 21:51:00,46.2,36.2,30.08,WNW,286,0.0,0.0,68,0.00,,CLR,0.00,0.00,VWS V14.01,2013-01-20 03:51:00,
2013-01-19 21:57:00,46.1,36.1,30.08,WNW,286,0.0,0.0,68,0.00,,CLR,0.00,0.00,VWS V14.01,2013-01-20 03:57:00,
2013-01-19 22:02:00,46.0,36.0,30.08,WNW,286,0.0,0.0,68,0.00,,CLR,0.00,0.00,VWS V14.01,2013-01-20 04:02:00,
2013-01-19 22:07:00,46.0,36.0,30.08,WNW,286,0.0,0.0,68,0.00,,CLR,0.00,0.00,VWS V14.01,2013-01-20 04:07:00,
2013-01-19 22:13:00,46.0,36.0,30.08,WNW,286,0.0,0.0,68,0.00,,CLR,0.00,0.00,VWS V14.01,2013-01-20 04:13:00,
2013-01-19 22:18:00,46.0,36.0,30.09,WNW,286,0.0,0.0,68,0.00,,CLR,0.00,0.00,VWS V14.01,2013-01-20 04:18:00,
2013-01-19 22:24:00,46.0,36.0,30.09,WNW,286,0.0,1.0,68,0.00,,CLR,0.00,0.00,VWS V14.01,2013-01-20 04:24:00,
2013-01-19 22:29:00,45.9,36.0,30.09,WNW,286,0.0,0.0,68,0.00,,CLR,0.00,0.00,VWS V14.01,2013-01-20 04:29:00,
2013-01-19 22:34:00,45.9,36.0,30.09,WNW,286,0.0,0.0,68,0.00,,CLR,0.00,0.00,VWS V14.01,2013-01-20 04:34:00,
2013-01-19 22:40:00,45.8,35.8,30.09,WNW,286,0.0,0.0,68,0.00,,CLR,0.00,0.00,VWS V14.01,2013-01-20 04:40:00,
2013-01-19 22:45:00,45.7,35.8,30.09,WNW,286,0.0,0.0,68,0.00,,CLR,0.00,0.00,VWS V14.01,2013-01-20 04:45:00,
2013-01-19 22:50:00,45.6,36.0,30.09,WNW,286,0.0,1.0,69,0.00,,CLR,0.00,0.00,VWS V14.01,2013-01-20 04:50:00,
2013-01-19 22:55:00,45.6,36.0,30.09,WNW,286,0.0,0.0,69,0.00,,CLR,0.00,0.00,VWS V14.01,2013-01-20 04:55:00,
2013-01-19 23:01:00,45.6,36.0,30.09,WNW,286,0.0,0.0,69,0.00,,CLR,0.00,0.00,VWS V14.01,2013-01-20 05:01:00,
2013-01-19 23:04:00,45.6,36.0,30.09,WNW,286,0.0,1.0,69,0.00,,CLR,0.00,0.00,VWS V14.01,2013-01-20 05:04:00,
2013-01-19 23:05:00,45.6,36.0,30.09,WNW,286,0.0,1.0,69,0.00,,CLR,0.00,0.00,VWS V14.01,2013-01-20 05:05:00,
2013-01-19 23:07:00,45.7,36.1,30.09,WNW,286,0.0,0.0,69,0.00,,CLR,0.00,0.00,VWS V14.01,2013-01-20 05:07:00,
2013-01-19 23:12:00,45.7,35.8,30.09,WNW,286,0.0,0.0,68,0.00,,CLR,0.00,0.00,VWS V14.01,2013-01-20 05:12:00,
2013-01-19 23:17:00,45.3,35.0,30.11,WNW,291,2.0,2.0,67,0.00,,CLR,0.00,0.00,VWS V14.01,2013-01-20 05:17:00,
2013-01-19 23:22:00,45.0,35.1,30.11,WNW,291,0.0,0.0,68,0.00,,CLR,0.00,0.00,VWS V14.01,2013-01-20 05:22:00,
2013-01-19 23:27:00,44.7,35.2,30.11,WNW,291,0.0,0.0,69,0.00,,CLR,0.00,0.00,VWS V14.01,2013-01-20 05:27:00,
2013-01-19 23:32:00,44.3,34.8,30.12,WNW,291,0.0,0.0,69,0.00,,CLR,0.00,0.00,VWS V14.01,2013-01-20 05:32:00,
2013-01-19 23:37:00,44.0,34.9,30.12,WNW,291,0.0,0.0,70,0.00,,CLR,0.00,0.00,VWS V14.01,2013-01-20 05:37:00,
2013-01-19 23:42:00,43.7,34.6,30.12,WNW,291,0.0,0.0,70,0.00,,CLR,0.00,0.00,VWS V14.01,2013-01-20 05:42:00,
2013-01-19 23:47:00,43.5,34.7,30.12,WNW,291,0.0,0.0,71,0.00,,CLR,0.00,0.00,VWS V14.01,2013-01-20 05:47:00,
2013-01-19 23:52:00,43.3,34.5,30.12,WNW,291,0.0,0.0,71,0.00,,CLR,0.00,0.00,VWS V14.01,2013-01-20 05:52:00,
2013-01-19 23:57:00,43.0,34.6,30.12,WNW,291,0.0,0.0,72,0.00,,CLR,0.00,0.00,VWS V14.01,2013-01-20 05:57:00,